Location: Byhalia Creek
(34.8270°N, 89.8040°W)
Time: 17:33:28
(UTC+00:00)

Cosmos 372 Rocket - Pass Details

Date: 22 April 2026
Orbit: 733 x 762 km, 74.1° (Epoch: 9 May)

Event Time Altitude Azimuth Distance (km) Brightness Sun altitude
Rises 10:05:43 0° 334° (NNW) 3,202 7.2 -14.8°
Reaches altitude 10° 10:08:12 10° 328° (NNW) 2,269 6.4 -14.3°
Maximum altitude 10:13:00 41° 258° (WSW) 1,062 4.3 -13.5°
Drops below altitude 10° 10:17:44 10° 189° (S) 2,238 6.1 -12.6°
Sets 10:20:10 0° 182° (S) 3,153 6.9 -12.1°
